Date String (YYYY-MM-DD hh:mm:ss) UTC,Instrument flags,Ambient pressure (hPa),Sample flow (lpm),Bypass flow (lpm),Sample temperature (°C),Ambient temperature (°C),ASC tube jacket temperature (°C),LED temperature (°C),Box temperature (°C),Sample RH (%),Span deviation,Mass concentration (μg/m³),Mass concentration (μg/m³),Mass concentration (μg/m³)
DateTimeUTC,F1_M11,P_M11,Q1_M11,Q2_M11,T1_M11,T2_M11,T3_M11,T4_M11,T5_M11,U1_M11,ZSPAN_M11,X0_M11,X2_M11,X1_M11
2022-10-09 08:00:00,,0833.0,5.00,0.00,28.2,26.5,00.0,37.0,29.9,16.7,0001.0,0012.55,0007.86,0007.23
2022-10-09 08:01:00,,0833.0,5.00,0.00,28.2,26.5,00.0,37.0,29.9,16.6,0000.8,0012.24,0007.82,0007.19
2022-10-09 08:02:00,,0833.1,5.00,0.00,28.2,26.5,00.0,37.0,29.9,16.4,0000.8,0012.20,0007.74,0007.11
2022-10-09 08:03:00,,0833.0,5.00,0.00,28.1,26.5,00.0,37.0,29.9,16.4,0000.5,0012.10,0007.67,0007.05
2022-10-09 08:04:00,,0833.0,4.99,0.00,28.1,26.5,00.0,37.0,30.0,16.4,0000.2,0011.99,0007.58,0006.98
2022-10-09 08:05:00,,0833.0,5.01,0.00,28.1,26.5,00.0,37.0,30.0,16.4,-000.0,0011.88,0007.51,0006.90
2022-10-09 08:06:00,,0832.9,4.99,0.00,28.1,26.5,00.0,37.0,29.9,16.4,-000.1,0011.78,0007.46,0006.86
2022-10-09 08:07:00,,0832.9,5.01,0.00,28.1,26.4,00.0,37.0,29.9,16.5,-000.2,0011.16,0007.45,0006.87
2022-10-09 08:08:00,,0832.8,4.99,0.00,28.1,26.4,00.0,37.0,29.9,16.6,-000.1,0010.94,0007.49,0006.92
2022-10-09 08:09:00,,0832.8,5.02,0.00,28.1,26.4,00.0,36.9,29.9,16.8,0000.1,0011.71,0007.52,0006.96
2022-10-09 08:10:00,,0832.8,4.99,0.00,28.1,26.4,00.0,36.9,29.9,16.9,0000.1,0011.78,0007.54,0007.00
2022-10-09 08:11:00,,0832.8,5.01,0.00,28.1,26.4,00.0,36.9,29.8,16.9,0000.4,0011.73,0007.56,0007.03
2022-10-09 08:12:00,,0832.8,4.99,0.00,28.1,26.4,00.0,36.9,29.8,16.8,0000.5,0011.79,0007.57,0007.07
2022-10-09 08:13:00,,0832.8,5.01,0.00,28.1,26.4,00.0,36.9,29.8,16.7,0000.7,0011.68,0007.58,0007.11
2022-10-09 08:14:00,,0832.8,4.99,0.00,28.1,26.4,00.0,36.9,29.9,16.7,0000.9,0011.73,0007.62,0007.14
2022-10-09 08:15:00,,0832.8,5.01,0.00,28.1,26.4,00.0,36.9,29.8,16.6,0001.3,0011.86,0007.69,0007.18
2022-10-09 08:16:00,,0832.8,4.99,0.00,28.1,26.3,00.0,36.9,29.8,16.4,0001.8,0011.95,0007.69,0007.19
2022-10-09 08:17:00,,0832.9,5.00,0.00,28.0,26.3,00.0,36.9,29.8,16.3,0001.9,0011.95,0007.70,0007.18
2022-10-09 08:18:00,,0832.9,4.98,0.00,28.0,26.3,00.0,36.9,29.8,16.2,0001.5,0011.90,0007.68,0007.14
2022-10-09 08:19:00,,0832.9,5.00,0.00,28.0,26.3,00.0,36.9,29.8,16.2,0001.5,0011.91,0007.64,0007.06
2022-10-09 08:20:00,,0832.8,4.99,0.00,28.0,26.3,00.0,36.9,29.8,16.3,0001.6,0011.25,0007.57,0006.98
2022-10-09 08:21:00,,0832.9,5.01,0.00,28.0,26.3,00.0,36.8,29.8,16.5,0001.6,0011.03,0007.47,0006.86
2022-10-09 08:22:00,,0832.8,4.99,0.00,28.0,26.3,00.0,36.8,29.8,16.4,0001.3,0010.82,0007.35,0006.76
2022-10-09 08:23:00,,0832.9,5.01,0.00,28.0,26.3,00.0,36.8,29.8,16.4,0001.7,0010.77,0007.31,0006.69
2022-10-09 08:24:00,,0832.8,4.99,0.00,28.0,26.3,00.0,36.8,29.8,16.7,0001.5,0011.11,0007.32,0006.69
2022-10-09 08:25:00,,0832.7,5.01,0.00,28.0,26.3,00.0,36.8,29.8,16.8,0001.3,0011.26,0007.33,0006.69
2022-10-09 08:26:00,,0832.7,4.99,0.00,28.0,26.3,00.0,36.8,29.7,16.8,0000.8,0011.20,0007.32,0006.71
2022-10-09 08:27:00,,0832.7,5.01,0.00,28.0,26.3,00.0,36.8,29.7,16.9,0001.1,0012.25,0007.39,0006.80
2022-10-09 08:28:00,,0832.7,4.99,0.00,28.0,26.2,00.0,36.8,29.7,16.9,0000.9,0012.68,0007.47,0006.91
2022-10-09 08:29:00,,0832.8,5.01,0.00,27.9,26.2,00.0,36.8,29.7,16.9,0001.0,0012.86,0007.56,0007.01
2022-10-09 08:30:00,,0832.8,5.00,0.00,27.9,26.2,00.0,36.8,29.7,16.8,0000.6,0012.90,0007.60,0007.09
2022-10-09 08:31:00,,0832.8,4.99,0.00,27.9,26.2,00.0,36.8,29.7,16.8,0001.1,0012.76,0007.64,0007.15
2022-10-09 08:32:00,,0832.8,5.00,0.00,27.9,26.2,00.0,36.8,29.7,16.9,0001.4,0012.80,0007.71,0007.23
2022-10-09 08:33:00,,0832.8,4.99,0.00,27.9,26.2,00.0,36.8,29.7,16.9,0001.3,0012.84,0007.76,0007.30
2022-10-09 08:34:00,,0832.8,5.00,0.00,27.9,26.2,00.0,36.8,29.7,16.7,0001.0,0012.83,0007.79,0007.33
2022-10-09 08:35:00,,0832.8,5.00,0.00,27.9,26.2,00.0,36.8,29.7,16.5,0000.9,0012.44,0007.72,0007.27
2022-10-09 08:36:00,,0832.8,4.99,0.00,27.9,26.2,00.0,36.7,29.7,16.5,0001.3,0012.26,0007.63,0007.21
2022-10-09 08:37:00,,0832.8,5.01,0.00,27.9,26.2,00.0,36.7,29.6,16.3,0002.0,0012.24,0007.57,0007.11
2022-10-09 08:38:00,,0832.8,5.00,0.00,27.9,26.2,00.0,36.7,29.6,16.3,0001.7,0011.61,0007.44,0006.97
2022-10-09 08:39:00,,0832.7,5.00,0.00,27.8,26.1,00.0,36.7,29.6,16.2,0002.0,0011.75,0007.30,0006.83
2022-10-09 08:40:00,,0832.7,5.01,0.00,27.8,26.1,00.0,36.7,29.6,16.2,0002.3,0011.52,0007.16,0006.69
2022-10-09 08:41:00,,0832.7,5.00,0.00,27.8,26.1,00.0,36.7,29.6,16.1,0002.3,0011.35,0007.06,0006.59
2022-10-09 08:42:00,,0832.7,5.01,0.00,27.8,26.1,00.0,36.7,29.6,16.1,0001.8,0011.27,0006.99,0006.50
2022-10-09 08:43:00,,0832.7,4.99,0.00,27.8,26.1,00.0,36.7,29.6,16.1,0002.1,0011.30,0006.89,0006.41
2022-10-09 08:44:00,,0832.6,5.01,0.00,27.8,26.1,00.0,36.7,29.6,16.0,0001.9,0011.19,0006.79,0006.30
2022-10-09 08:45:00,,0832.6,4.99,0.00,27.8,26.1,00.0,36.7,29.6,16.0,0001.9,0011.00,0006.66,0006.19
2022-10-09 08:46:00,,0832.6,5.01,0.00,27.8,26.1,00.0,36.7,29.6,16.0,0001.9,0010.95,0006.62,0006.14
2022-10-09 08:47:00,,0832.6,4.99,0.00,27.8,26.1,00.0,36.7,29.6,16.0,0001.1,0010.96,0006.61,0006.09
2022-10-09 08:48:00,,0832.6,5.01,0.00,27.8,26.1,00.0,36.7,29.6,15.9,0001.0,0010.82,0006.55,0006.03
2022-10-09 08:49:00,,0832.6,4.99,0.00,27.8,26.1,00.0,36.6,29.6,15.9,0000.6,0010.25,0006.44,0005.98
2022-10-09 08:50:00,,0832.6,4.99,0.00,27.8,26.1,00.0,36.6,29.6,15.9,0000.0,0009.27,0006.37,0005.93
2022-10-09 08:51:00,,0832.6,5.01,0.00,27.8,26.1,00.0,36.6,29.6,16.0,0000.0,0009.19,0006.29,0005.88
2022-10-09 08:52:00,,0832.6,4.99,0.00,27.8,26.1,00.0,36.6,29.5,16.0,0000.0,0009.15,0006.23,0005.84
2022-10-09 08:53:00,,0832.6,5.00,0.00,27.8,26.1,00.0,36.6,29.6,16.0,0000.0,0009.18,0006.17,0005.78
2022-10-09 08:54:00,,0832.6,4.99,0.00,27.8,26.1,00.0,36.6,29.6,16.1,0000.2,0009.10,0006.15,0005.73
2022-10-09 08:55:00,,0832.7,5.00,0.00,27.8,26.1,00.0,36.6,29.6,16.0,0000.6,0009.09,0006.12,0005.69
2022-10-09 08:56:00,,0832.6,5.00,0.00,27.7,26.1,00.0,36.6,29.6,16.1,0000.6,0009.17,0006.11,0005.66
2022-10-09 08:57:00,,0832.7,4.99,0.00,27.7,26.1,00.0,36.6,29.6,16.1,0000.2,0009.31,0006.03,0005.63
2022-10-09 08:58:00,,0832.6,5.02,0.00,27.7,26.1,00.0,36.6,29.6,16.0,0000.6,0009.25,0005.99,0005.60
2022-10-09 08:59:00,,0832.6,4.99,0.00,27.7,26.1,00.0,36.6,29.6,16.0,-000.0,0009.18,0005.96,0005.59
